SCOUT B DEB, 29279

Orbit data source: Space-Track

SCOUT B DEB, 29279 is space debris in LEO originally from a launch on Thu, 08 Aug 1968 UTC launched from the Air Force Western Test Range (AFWTR). Debris objects in space refer to the collection of defunct objects orbiting the Earth. Examples of debris include non-operational satellites, rocket bodies, and fragments generated from explosions, collisions, or faulty payload assembly.

Loading next visibility...
Identifier
29279, 1968-066N
Orbit
LEO
Country
Flag of USUS
Related business
Manufacturer
Unknown
Mission
Spacecraft
Bus & Motor
Unknown
Mass
Unknown
Launch date (UTC)
1968-08-08 (57 years ago)
Launch vehicle
Unknown
Launch site
Air Force Western Test Range (AFWTR)
Object type
Payload
Rocket body
Debris
Shape & HBR
Unknown
Radar Cross Section
Small (<0.1 m²)

Expand to show TLE details & history
Last TLE update: 11 months ago

TLE from 11 months ago
0 SCOUT B DEB
1 29279U 68066N   24292.39230666  .00010641  00000-0  53853-2 0  9997
2 29279  80.6012 160.1866 0554835  24.4627 338.1787 13.57417443198645
Epoch: 2024-10-18T09:24Z
TLE epoch observation values (Epoch: 2024-10-18T09:24:55.295Z)
Latitude
-0.00007°
Longitude
-8.4065°
Altitude
668.892 km
Speed
7.712 km/s
True Right ascension
10h 40m 44s
True Declination
0° 00' 00"
Sunlit
Object was in daylight at epoch
Visualization orbit readout
Latitude
Unknown
Longitude
Unknown
Altitude
Unknown
Speed
Unknown
Apparent Right ascension
Unknown
Apparent Declination
Unknown
Sunlit
N/A
Visualization observer readout
Local Sidereal Time
18:05:25
Azimuth
Unknown
Elevation
Unknown
Doppler factor
Unknown
Orbital elements
Apogee altitude
1,454.071 km
Perigee altitude
630.641 km
Semi-major axis
7,420.493 km
Eccentricity
0.05548
Inclination
80.6012°
RAAN
160.1866°
Arg. of periapsis
24.4627°
True anomaly
335.65405°
Mean anomaly
338.1787°
Eccentric anomaly
336.93316°
Mean motion
3.39542 °/min
Orbital period
106.03 mins
BSTAR
0.0053853
Loading maneuver chart data...
Computing Atmospheric mass density...
Loading historical data...
Loading historical data...
Loading historical data...
Loading historical data...
Loading historical data...
Loading historical data...
Loading historical data...

Documentation

Showing up to 5 results
|